Weather in Kirga

Russia / Perm Krai     56°21′14″N   55°10′16″E
temp.,
°C
wind,
m/s
gust,
m/s
humid.,
%
clouds,
%
prec.,
mm/h
press.,
hPa
HPBL,
m
28 february, sun
sun2823:00−11e61094100 1.4 1003391
02:00−13e599499 0.1 1002258
05:00−13ene599498 0.4 1002272
08:00−14ne599497 0.2 1003289
11:00−13ne699295 0.3 1003398
14:00−10ne5792100 0.2 1004486
17:00−9nne5892100 0.3 1006565
20:00−12nne599389 0.1 1008274
1 march, mon
mon123:00−13nne489485 0.1 1010247
02:00−14nne479593 0.1 1011228
05:00−15nne479594 0.1 1013207
08:00−17nne369687 0.1 1015161
11:00−15nne359285 0.1 1017361
14:00−13nne238699 0.1 1017488
17:00−12nw2389100 0.1 1018365
20:00−15w2297100 0.1 101821
2 march, tue
tue223:00−18wsw349996 0.1 101842
02:00−21sw4510078 0.0 101685
05:00−21s5109888 0.0 1014220
08:00−19s71295100 0.0 1011274
11:00−17s81395100 0.4 1008357
14:00−13s81393100 0.5 1004555
17:00−10ssw71293100 1.0 1002590
20:00−9s71294100 0.8 1000513
3 march, wed
wed323:00−8s71394100 1.6 999443
02:00−6s61195100 0.6 998284
05:00−4ssw4897100 1.2 998264
08:00−5wnw489498 0.3 998326
11:00−5w369593 0.3 999339
14:00−3wsw479499 0.3 999432
17:00−3w579099 0.3 1000761
20:00−6wnw4992100 0.2 1001377
4 march, thu
thu423:00−9w479599 0.2 1003137
02:00−13w479881 0.0 100495
05:00−14w449881 0.1 100472
08:00−12wsw489693 0.1 1005190
11:00−10sw489496 0.2 1004284
14:00−7sw6992100 0.1 1003539
17:00−6ssw71193100 0.2 1001681
20:00−5ssw81494100 0.8 997797